Regional Weather Roundup
Issued by NWS Nashville, TN

Home | Current Version | Previous Version | Text Only | Print | Product List | Glossary On
Versions: 1 2 3 4 5 6 7 8 9 10 11 12 13 14 15 16 17 18 19 20 21 22 23 24 25 26 27 28 29 30 31 32 33 34 35 36 37 38 39 40 41 42 43 44 45 46 47 48 49 50
000
ASUS44 KOHX 221910
RWROHX
MIDDLE TENNESSEE HOURLY WEATHER ROUNDUP
NATIONAL WEATHER SERVICE NASHVILLE TN
200 PM CDT MON MAY 22 2017

NOTE: "FAIR" INDICATES FEW OR NO CLOUDS BELOW 12,000 FEET WITH
NO SIGNIFICANT WEATHER AND/OR OBSTRUCTIONS TO VISIBILITY.

* THESE REPORTS ARE NOT UNDER NWS QUALITY CONTROL AND MAY NOT
  REPORT WEATHER SUCH AS PRECIPITATION AND FOG.


TNZ005>011-023>034-057-059-062>066-078-080-222000
...NORTHERN MIDDLE TENNESSEE...

CITY           SKY/WX    TMP DP  RH WIND       PRES   REMARKS
CLARKSVILLE    MOSUNNY   71  46  40 NE6       30.07F
CROSSVILLE     MOSUNNY   71  53  52 E6        30.09F
GALLATIN       SUNNY     72  48  43 CALM      30.09F
DICKSON        PTSUNNY   70  49  47 E7        30.08F
LEBANON        PTSUNNY   70  48  45 VRB3      30.06F
NASHVILLE      PTSUNNY   74  49  41 VRB5      30.08F
PORTLAND       SUNNY     70  50  49 NE7       30.08F
SMYRNA         CLOUDY    73  56  54 N7        30.08F
SPARTA         SUNNY     72  55  56 VRB3      30.05F
WEST NASHVILLE SUNNY     72  48  43 N7        30.05F
$$
TNZ056-058-060-061-075>077-079-093>097-222000
...SOUTHERN MIDDLE TENNESSEE...

CITY           SKY/WX    TMP DP  RH WIND       PRES   REMARKS
COLUMBIA       SUNNY     73  54  49 E5        30.05F
FAYETTEVILLE   SUNNY     75  59  57 VRB5      30.05F
MCMINNVILLE    SUNNY     72  57  60 VRB3      30.06F
MURFREESBORO     N/A     72  54  53 N6        30.06F
PULASKI        SUNNY     75  59  57 N7        30.06F
SHELBYVILLE    MOSUNNY   72  57  60 NW7       30.07S
TULLAHOMA      SUNNY     72  52  49 E6        30.07S
WINCHESTER     MOSUNNY   75  61  60 VRB6      30.05F
$$


...KEY TO REMARKS...
VSB - VISIBILITY IN MILES
WCI - WIND CHILL INDEX
HX  - HEAT INDEX




USA.gov is the U.S. government's official web portal to all federal, state and local government web resources and services.